Вернуться в каталог

STARLINK-3372

АктивенСвязьVLEO
NORAD 51113·PAYLOAD·🇺🇸 United States

Запущен Jan 19, 2022 с Cape Canaveral Space Force Station

Loading…

Ближайшие Пролёты (ближайшие 24 часа)

TLE

СвежийSource: CelesTrak SupGP

Эпоха: Sep 14, 2026, 20:40 UTC

1 51113C 22005K   26257.86159722 -.00039782  00000+0 -11380-2 0  2574
2 51113  53.1588 152.2491 0001343  97.3995 224.7717 15.35424095    19

Отслеживайте STARLINK-3372 в реальном времени с AllMySat

Download on the App Store